Flag for Netherlands Weather past 2 weeks in Apeldoorn, Netherlands

Now
59 °F

Fog.


Feels Like: 58 °F
Forecast: 55 / 64 °F
Wind: 6 mph from Southwest

Location: Deelen

Current Time: Aug 29, 2014 at 4:01:14 AM

Latest Report: Aug 29, 2014 at 3:25 AM


Visibility: 2 mi

Pressure: 29.95 "Hg

Humidity: 100%

Dew point: 59 °F

Location of ApeldoornLocation

Historic Weather in Apeldoorn — Graph

°F

Apeldoorn temperature yesterday

Maximum temperature yesterday: 70 °F (at 11:55 AM)
Minimum temperature yesterday: 54 °F (at 4:55 AM)
Average temperature yesterday: 63 °F

Past Weeks' High & Low Weather Summary

 TemperatureHumidityPressure
High70 °F (Aug 27, 3:55 PM)100% (Aug 14, 6:25 AM)30.09 "Hg (Aug 14, 6:25 AM)
Low43 °F (Aug 25, 12:55 AM)49% (Aug 23, 5:55 PM)29.62 "Hg (Aug 18, 2:55 AM)
Average56 °F86%29.89 "Hg
* Reported Aug 14 2:55 AM — Aug 29 2:55 AM, Apeldoorn, Weather by CustomWeather, © 2014

Note: Actual official high and low records may vary slightly from our data, if they occured in-between our weather recording intervals... More about our weather records

Advertising

Apeldoorn weather history for previous 24 hours

 ConditionsComfort  
Time TempWeatherWind HumidityBarometerVisibility
2:55 AM
Aug 29
59 °FFog.6 mph100%29.95 "Hg2 mi
2:25 AM59 °FFog.5 mph100%29.92 "Hg2 mi
1:55 AM59 °FFog.5 mph100%29.92 "Hg3 mi
1:25 AM59 °FFog.3 mph100%29.92 "Hg5 mi
12:55 AM59 °FPartly cloudy.3 mph100%29.92 "HgN/A
12:25 AM59 °FRain. Partly cloudy.6 mph100%29.92 "Hg2 mi
11:55 PM
Aug 28
61 °FRain showers. Passing clouds.7 mph94%29.92 "Hg3 mi
11:25 PM63 °FFog.6 mph94%29.92 "Hg4 mi
10:55 PM63 °FSprinkles. Partly cloudy.5 mph94%29.92 "Hg3 mi
10:25 PM64 °FOvercast.7 mph88%29.92 "HgN/A
9:55 PM66 °FPartly cloudy.10 mph88%29.92 "HgN/A
9:25 PM68 °FMostly cloudy.3 mph83%29.89 "HgN/A
8:55 PM66 °FPartly sunny.5 mph88%29.89 "HgN/A
8:25 PM68 °FPartly sunny.6 mph78%29.89 "HgN/A
7:55 PM68 °FBroken clouds.6 mph83%29.89 "HgN/A
7:25 PM68 °FOvercast.5 mph83%29.89 "HgN/A
6:55 PM70 °FScattered clouds.8 mph73%29.89 "HgN/A
6:25 PM70 °FOvercast.9 mph73%29.92 "HgN/A
5:55 PM70 °FPartly sunny.10 mph73%29.92 "HgN/A
5:25 PM70 °FOvercast.8 mph73%29.92 "HgN/A
4:55 PM70 °FOvercast.8 mph73%29.92 "HgN/A
4:25 PM70 °FOvercast.12 mph69%29.92 "HgN/A
3:55 PM70 °FCloudy.8 mph73%29.92 "HgN/A
3:25 PM70 °FOvercast.8 mph69%29.92 "HgN/A
2:55 PM70 °FMostly cloudy.10 mph73%29.92 "HgN/A
2:25 PM70 °FCloudy.13 mph69%29.92 "HgN/A
1:55 PM70 °FMore clouds than sun.10 mph69%29.95 "HgN/A
1:25 PM70 °FCloudy.10 mph69%29.95 "HgN/A
12:55 PM70 °FPartly sunny.9 mph69%29.95 "HgN/A
12:25 PM70 °FScattered clouds.9 mph69%29.95 "HgN/A
11:55 AM70 °FScattered clouds.9 mph73%29.95 "HgN/A
11:25 AM68 °FPassing clouds.8 mph78%29.95 "HgN/A
10:55 AM66 °FPartly sunny.8 mph78%29.95 "HgN/A
10:25 AM66 °FMild.7 mph78%29.95 "HgN/A
9:55 AM64 °FMild.8 mph83%29.95 "HgN/A
9:25 AM61 °FCool.7 mph88%29.98 "HgN/A
8:55 AM61 °FPassing clouds.7 mph88%29.98 "HgN/A
8:25 AM57 °FPassing clouds.5 mph94%29.98 "HgN/A
7:55 AM55 °FFog.5 mph94%29.95 "Hg4 mi
7:25 AM54 °FFog.3 mph94%29.98 "Hg4 mi
6:55 AM54 °FFog.2 mph94%29.98 "Hg4 mi
6:25 AM54 °FFog.3 mph94%29.98 "Hg4 mi
5:55 AM54 °FFog.3 mph94%29.98 "Hg6 mi
5:25 AM54 °FPartly cloudy.3 mph94%29.98 "HgN/A
4:55 AM54 °FPassing clouds.5 mph94%29.98 "HgN/A
4:25 AM55 °FPassing clouds.5 mph82%29.98 "HgN/A
Weather by CustomWeather, © 2014

See weather overviewHow to use our weather pages